World > North America > United States > New York   Town of Mohawk, NY

Mohawk, New York Regional Weather

Lat: 43.01N, Lon: 75.01W
Wx Zone: NYZ038
Feedback

Mohawk, NY Regional Weather

Expires:202007160300;;912689
ASUS41 KGYX 160210
RWRGYX
WEATHER ROUNDUP FOR MAINE AND NEW HAMPSHIRE
NATIONAL WEATHER SERVICE GRAY ME
1000 PM EDT WED JUL 15 2020


MAZ007-012-024-CTZ003-RIZ002-NYZ038-NYZ072-160300-
SOUTHERN NEW ENGLAND AND NY
  
CITY           SKY/WX    TMP DP  RH WIND       PRES   REMARKS
BOSTON         PTCLDY    62  57  83 SE5       30.28R                  
WORCESTER      CLEAR     64  56  75 SE8       30.30R                  
NANTUCKET      CLEAR     60  55  83 NE9       30.26R                  
PROVIDENCE     PTCLDY    65  57  75 NE5       30.28R                  
HARTFORD       MOCLDY    71  61  70 S10       30.24R                  
ALBANY         PTCLDY    78  63  59 SE6       30.18R                  
NEW YORK CITY  MOCLDY    74  62  66 SE12      30.22R                  
$$


SKY/WX - Weather  TMP - Temperature  DP - Dew Point  RH - Relative Humidity
WIND - Wind Direction/Speed PRES - Barometric Pressure VSB - Visibility
WCI - Wind Chill Index E13G22 Wind - East Wind 13 mph/Gusts of 22 mph
Mohawk Weather Map
UTC Time: 7/16/2020, 02:50
Your Time: